When you browse on this site, cookies collect data to enhance your experience and personalize the content and advertising you see.
Visit our Privacy Policy to learn more. By continuing to use the site, you agree to this use of cookies and data.
  • In Hungary
  • List of Countries
  • For 7 days
  • Water Temperature
  • Weather Map
  • News
  • Weather Widgets
  • user-avatar
    Login

    Hourly Weather Shorohovo

    Today, 20 October, Sunday

    Time Temperature Precipitation Wind Pressure Humidity
    00:00 -5°C° 0 mm 4 mps 754 mmHg 73%
    01:00 -5°C° 0 mm 4 mps 754 mmHg 74%
    02:00 -5°C° 0 mm 3 mps 754 mmHg 74%
    03:00 -5°C° 0 mm 3 mps 754 mmHg 74%
    04:00 -5°C° 0 mm 3 mps 754 mmHg 74%
    05:00 -5°C° 0 mm 3 mps 754 mmHg 75%
    06:00 -4°C° 0 mm 2 mps 755 mmHg 77%
    07:00 -4°C° 0 mm 2 mps 755 mmHg 78%
    08:00 -3°C° 0 mm 2 mps 755 mmHg 74%
    09:00 -2°C° 0 mm 3 mps 755 mmHg 70%
    10:00 0°C° 0 mm 3 mps 755 mmHg 66%
    11:00 0°C° 0 mm 3 mps 755 mmHg 63%
    12:00 +1°C° 0 mm 3 mps 754 mmHg 60%
    13:00 +2°C° 0 mm 3 mps 754 mmHg 57%
    14:00 +2°C° 0 mm 3 mps 754 mmHg 60%
    15:00 +1°C° 0 mm 3 mps 754 mmHg 63%
    16:00 +1°C° 0 mm 3 mps 754 mmHg 66%
    17:00 0°C° 0 mm 3 mps 754 mmHg 68%
    18:00 0°C° 0 mm 3 mps 754 mmHg 71%
    19:00 -2°C° 0 mm 4 mps 754 mmHg 73%
    20:00 -2°C° 0 mm 4 mps 753 mmHg 73%
    21:00 -2°C° 0 mm 4 mps 753 mmHg 74%
    22:00 -2°C° 0 mm 5 mps 753 mmHg 74%
    23:00 -2°C° 0 mm 5 mps 753 mmHg 74%

    Tomorrow, 21 October, Monday

    Time Temperature Precipitation Wind Pressure Humidity
    00:00 -2°C° 0 mm 5 mps 753 mmHg 73%
    01:00 -3°C° 0 mm 6 mps 752 mmHg 72%
    02:00 -3°C° 0 mm 6 mps 752 mmHg 72%
    03:00 -2°C° 0 mm 6 mps 752 mmHg 71%
    04:00 -2°C° 0 mm 6 mps 752 mmHg 70%
    05:00 -3°C° 0.2 mm 7 mps 752 mmHg 73%
    06:00 -3°C° 0.2 mm 7 mps 751 mmHg 75%
    07:00 -3°C° 0.2 mm 7 mps 751 mmHg 77%
    08:00 -3°C° 0.3 mm 7 mps 751 mmHg 80%
    09:00 -3°C° 0.3 mm 7 mps 750 mmHg 83%
    10:00 -3°C° 0.3 mm 7 mps 750 mmHg 86%
    11:00 -2°C° 0.1 mm 6 mps 750 mmHg 87%
    12:00 -2°C° 0.1 mm 6 mps 750 mmHg 89%
    13:00 -2°C° 0.1 mm 6 mps 750 mmHg 90%
    14:00 -2°C° 0.1 mm 6 mps 749 mmHg 90%
    15:00 -2°C° 0.1 mm 6 mps 749 mmHg 91%
    16:00 -2°C° 0.1 mm 6 mps 749 mmHg 91%
    17:00 -1°C° 0.4 mm 7 mps 748 mmHg 91%
    18:00 -1°C° 0.4 mm 7 mps 748 mmHg 91%
    19:00 -1°C° 0.4 mm 7 mps 748 mmHg 91%
    20:00 -1°C° 0.1 mm 7 mps 747 mmHg 88%
    21:00 0°C° 0.1 mm 7 mps 746 mmHg 85%
    22:00 0°C° 0.1 mm 8 mps 745 mmHg 82%
    23:00 0°C° 0 mm 8 mps 744 mmHg 81%

    Day after tomorrow, 22 October, Tuesday

    Time Temperature Precipitation Wind Pressure Humidity
    00:00 0°C° 0 mm 9 mps 743 mmHg 81%
    01:00 +1°C° 0 mm 9 mps 742 mmHg 81%
    02:00 +1°C° 1.1 mm 9 mps 742 mmHg 84%
    03:00 +1°C° 1.1 mm 9 mps 741 mmHg 87%
    04:00 +2°C° 1.1 mm 9 mps 740 mmHg 91%
    05:00 +2°C° 1.6 mm 9 mps 740 mmHg 92%
    06:00 +4°C° 1.6 mm 8 mps 740 mmHg 93%
    07:00 +4°C° 1.6 mm 7 mps 740 mmHg 95%
    08:00 +5°C° 0.1 mm 7 mps 740 mmHg 90%
    09:00 +5°C° 0.1 mm 6 mps 741 mmHg 85%
    10:00 +5°C° 0.1 mm 6 mps 741 mmHg 81%
    11:00 +4°C° 0 mm 6 mps 741 mmHg 79%
    12:00 +5°C° 0 mm 5 mps 741 mmHg 76%
    13:00 +5°C° 0 mm 5 mps 742 mmHg 74%
    14:00 +3°C° 0 mm 5 mps 742 mmHg 75%
    15:00 +4°C° 0 mm 4 mps 742 mmHg 76%
    16:00 +4°C° 0 mm 4 mps 743 mmHg 76%
    17:00 +4°C° 0 mm 4 mps 743 mmHg 77%
    18:00 +3°C° 0 mm 4 mps 743 mmHg 78%
    19:00 +3°C° 0 mm 4 mps 744 mmHg 79%
    20:00 +3°C° 0 mm 3 mps 744 mmHg 80%
    21:00 +3°C° 0 mm 3 mps 744 mmHg 82%
    22:00 +2°C° 0 mm 3 mps 744 mmHg 84%
    23:00 +2°C° 0 mm 3 mps 745 mmHg 86%

    23 October, Wednesday

    Time Temperature Precipitation Wind Pressure Humidity
    00:00 +1°C° 0 mm 3 mps 745 mmHg 88%
    01:00 0°C° 0 mm 3 mps 745 mmHg 90%
    02:00 +1°C° 0 mm 2 mps 745 mmHg 89%
    03:00 -1°C° 0 mm 2 mps 745 mmHg 88%
    04:00 -1°C° 0 mm 2 mps 746 mmHg 88%
    05:00 -2°C° 0 mm 2 mps 746 mmHg 87%
    06:00 -2°C° 0 mm 2 mps 746 mmHg 86%
    07:00 0°C° 0 mm 1 mps 746 mmHg 85%
    08:00 -1°C° 0 mm 2 mps 747 mmHg 81%
    09:00 -1°C° 0 mm 2 mps 747 mmHg 77%
    10:00 +1°C° 0 mm 2 mps 747 mmHg 73%
    11:00 +1°C° 0 mm 2 mps 747 mmHg 71%
    12:00 +2°C° 0 mm 2 mps 747 mmHg 68%
    13:00 +1°C° 0 mm 3 mps 746 mmHg 65%
    14:00 +1°C° 0 mm 3 mps 746 mmHg 68%
    15:00 +1°C° 0 mm 3 mps 746 mmHg 70%
    16:00 +2°C° 0 mm 2 mps 746 mmHg 72%
    17:00 0°C° 0 mm 3 mps 746 mmHg 77%
    18:00 0°C° 0 mm 3 mps 746 mmHg 82%
    19:00 0°C° 0 mm 3 mps 746 mmHg 87%
    20:00 -1°C° 0 mm 4 mps 745 mmHg 86%
    21:00 -1°C° 0 mm 4 mps 745 mmHg 86%
    22:00 -1°C° 0 mm 5 mps 745 mmHg 85%
    23:00 0°C° 0 mm 5 mps 744 mmHg 86%

    24 October, Thursday

    Time Temperature Precipitation Wind Pressure Humidity
    00:00 0°C° 0 mm 5 mps 744 mmHg 87%
    01:00 +1°C° 0 mm 5 mps 743 mmHg 88%
    02:00 +1°C° 0.1 mm 5 mps 743 mmHg 90%
    03:00 +1°C° 0.1 mm 5 mps 742 mmHg 92%
    04:00 +1°C° 0.1 mm 6 mps 742 mmHg 93%
    05:00 +2°C° 0 mm 5 mps 742 mmHg 94%
    06:00 +2°C° 0 mm 5 mps 742 mmHg 95%
    07:00 +3°C° 0 mm 5 mps 742 mmHg 95%
    08:00 +3°C° 0 mm 5 mps 742 mmHg 95%
    09:00 +5°C° 0 mm 4 mps 742 mmHg 95%
    10:00 +5°C° 0 mm 4 mps 742 mmHg 95%
    11:00 +6°C° 0.1 mm 4 mps 742 mmHg 96%
    12:00 +6°C° 0.1 mm 5 mps 742 mmHg 97%
    13:00 +6°C° 0.1 mm 5 mps 741 mmHg 97%
    14:00 +7°C° 0.2 mm 5 mps 741 mmHg 97%
    15:00 +7°C° 0.2 mm 5 mps 741 mmHg 97%
    16:00 +7°C° 0.2 mm 4 mps 741 mmHg 97%
    17:00 +7°C° 0.2 mm 4 mps 741 mmHg 97%
    18:00 +8°C° 0.2 mm 4 mps 742 mmHg 97%
    19:00 +8°C° 0.2 mm 4 mps 742 mmHg 97%
    20:00 +8°C° 0.4 mm 4 mps 742 mmHg 97%
    21:00 +8°C° 0.4 mm 4 mps 742 mmHg 97%
    22:00 +8°C° 0.4 mm 3 mps 742 mmHg 97%
    23:00 +8°C° 0.1 mm 3 mps 742 mmHg 97%

    25 October, Friday

    Time Temperature Precipitation Wind Pressure Humidity
    00:00 +8°C° 0.1 mm 2 mps 742 mmHg 97%
    01:00 +8°C° 0.1 mm 2 mps 742 mmHg 97%
    02:00 +9°C° 0.1 mm 1 mps 743 mmHg 97%
    03:00 +9°C° 0.1 mm 1 mps 743 mmHg 98%
    04:00 +9°C° 0.1 mm 1 mps 743 mmHg 98%
    05:00 +8°C° 0.2 mm 2 mps 743 mmHg 98%
    06:00 +8°C° 0.2 mm 2 mps 743 mmHg 98%
    07:00 +8°C° 0.2 mm 3 mps 743 mmHg 98%
    08:00 +9°C° 0.1 mm 3 mps 743 mmHg 97%
    09:00 +8°C° 0.1 mm 4 mps 743 mmHg 97%
    10:00 +8°C° 0.1 mm 4 mps 743 mmHg 96%
    11:00 +8°C° 0.1 mm 4 mps 743 mmHg 95%
    12:00 +8°C° 0.1 mm 5 mps 743 mmHg 94%
    13:00 +9°C° 0.1 mm 5 mps 743 mmHg 92%
    14:00 +9°C° 0.1 mm 5 mps 743 mmHg 92%
    15:00 +9°C° 0.1 mm 5 mps 743 mmHg 91%
    16:00 +9°C° 0.1 mm 5 mps 743 mmHg 90%
    17:00 +9°C° 0.1 mm 5 mps 743 mmHg 91%
    18:00 +10°C° 0.1 mm 4 mps 744 mmHg 92%
    19:00 +10°C° 0.1 mm 4 mps 744 mmHg 93%
    20:00 +10°C° 0.2 mm 4 mps 744 mmHg 93%
    21:00 +8°C° 0.2 mm 4 mps 744 mmHg 93%
    22:00 +9°C° 0.2 mm 3 mps 744 mmHg 93%
    23:00 +8°C° 0.2 mm 3 mps 744 mmHg 92%
    Show more